Iron Mountain, MI

12:37 AM CST on January 24, 2018 (GMT -0600)
Ford

Weather History for KIMT - July, 2012

Change the Weather History Date:

Saturday, July 28, 2012

  Actual Average Record
Temperature  
Mean Temperature 64 °F -  
Max Temperature 81 °F 79 °F 95 °F (1931)
Min Temperature 48 °F 54 °F 33 °F (1996)
Growing Degree Days 14 (Base 50)    
Moisture  
Dew Point 49 °F    
Average Humidity 66    
Maximum Humidity 94    
Minimum Humidity 27    
Precipitation  
Precipitation 0.00 in - - ()
Sea Level Pressure  
Sea Level Pressure 30.11 in    
Wind  
Wind Speed 1 mph (WNW)    
Max Wind Speed 8 mph    
Max Gust Speed -    
Visibility 10 miles    
Events      
Averages and records for this station are not official NWS values.
T = Trace of Precipitation, MM = Missing Value Source: NWS Daily Summary

Daily Weather History Graph

Daily Weather History Graph

Search for Another Location

Airport or City:

Trip Planner

Search our weather history database for the weather conditions in past years. The results will help you decide how hot, cold, wet, or windy it might be!

Date:

Astronomy

Jul. 28, 2012 Rise Set
Actual Time 5:31 AM CDT 8:25 PM CDT
Civil Twilight 4:56 AM CDT 9:00 PM CDT
Nautical Twilight 4:11 AM CDT 9:44 PM CDT
Astronomical Twilight 3:18 AM CDT 10:37 PM CDT
Moon 4:33 PM CDT (7/28) 12:48 AM CDT (7/28)
Length of Visible Light 16h 04m
Length of Day
14h 54m
Waxing Gibbous, 76% of the Moon is Illuminated
Jul 28
Waxing Gibbous
Aug 1
Full
Aug 9
Last Quarter
Aug 17
New
Aug 24
First Quarter

Hourly Weather History & Observations

Time (CDT) Temp. Dew Point Humidity Pressure Visibility Wind Dir Wind Speed Gust Speed Precip Events Conditions
12:54 AM 52.0 °F 50.0 °F 93% 30.09 in 10.0 mi Calm Calm - N/A   Clear
1:46 AM 51.8 °F 50.0 °F 94% 30.10 in 10.0 mi Calm Calm - N/A   Partly Cloudy
1:54 AM 51.1 °F 48.9 °F 92% 30.11 in 10.0 mi Calm Calm - N/A   Partly Cloudy
2:54 AM 50.0 °F 48.0 °F 93% 30.11 in 10.0 mi Calm Calm - N/A   Clear
3:31 AM 48.2 °F 46.4 °F 93% 30.12 in 1.8 mi Calm Calm - N/A   Clear
3:44 AM 48.2 °F 46.4 °F 93% 30.11 in 4.0 mi Calm Calm - N/A   Clear
3:54 AM 48.9 °F 46.9 °F 93% 30.12 in 10.0 mi Calm Calm - N/A   Clear
4:54 AM 48.9 °F 46.9 °F 93% 30.13 in 10.0 mi North 4.6 mph - N/A   Clear
5:54 AM 50.0 °F 48.0 °F 93% 30.14 in 10.0 mi Calm Calm - N/A   Clear
6:54 AM 54.0 °F 51.1 °F 90% 30.15 in 10.0 mi Calm Calm - N/A   Clear
7:54 AM 57.9 °F 54.0 °F 87% 30.16 in 10.0 mi Calm Calm - N/A   Clear
8:54 AM 64.0 °F 55.0 °F 73% 30.17 in 10.0 mi Calm Calm - N/A   Clear
9:54 AM 69.1 °F 54.0 °F 58% 30.15 in 10.0 mi NNW 4.6 mph - N/A   Clear
10:54 AM 72.0 °F 48.9 °F 44% 30.15 in 10.0 mi NNE 4.6 mph - N/A   Clear
11:54 AM 73.9 °F 50.0 °F 43% 30.16 in 10.0 mi Variable 4.6 mph - N/A   Clear
12:54 PM 77.0 °F 48.0 °F 36% 30.14 in 10.0 mi WNW 4.6 mph - N/A   Clear
1:54 PM 78.1 °F 48.0 °F 35% 30.13 in 10.0 mi Variable 3.5 mph - N/A   Clear
2:54 PM 81.0 °F 46.9 °F 30% 30.12 in 10.0 mi Variable 4.6 mph - N/A   Clear
3:54 PM 80.1 °F 46.0 °F 30% 30.11 in 10.0 mi West 3.5 mph - N/A   Clear
4:54 PM 81.0 °F 45.0 °F 28% 30.09 in 10.0 mi SW 8.1 mph - N/A   Clear
5:54 PM 81.0 °F 44.1 °F 27% 30.08 in 10.0 mi West 5.8 mph - N/A   Clear
6:54 PM 79.0 °F 44.1 °F 29% 30.07 in 10.0 mi Calm Calm - N/A   Clear
7:54 PM 73.9 °F 52.0 °F 46% 30.07 in 10.0 mi Calm Calm - N/A   Clear
8:54 PM 66.9 °F 54.0 °F 63% 30.07 in 10.0 mi Calm Calm - N/A   Clear
9:54 PM 62.1 °F 54.0 °F 75% 30.08 in 10.0 mi Calm Calm - N/A   Clear
10:54 PM 59.0 °F 53.1 °F 81% 30.08 in 10.0 mi Calm Calm - N/A   Clear
11:54 PM 59.0 °F 54.0 °F 83% 30.09 in 10.0 mi Calm Calm - N/A   Clear